Location: Newark
(34.6283°N, 36.0776°E)
Time: 22:09:40
(UTC+00:00)

A-11 Canister half - Pass Details

Date: 21 September 2019
Orbit: 1527 x 1682 km, 47.3° (Epoch: 15 October)

Event Time Altitude Azimuth Distance (km) Brightness Sun altitude
Rises 23:31:06 0° 210° (SSW) 4,663 - -44.7°
Reaches altitude 10° 23:34:14 10° 205° (SSW) 3,684 - -44.2°
Maximum altitude 23:43:03 50° 133° (SE) 1,891 - -42.9°
Exits shadow 23:44:44 46° 104° (ESE) 1,993 9.6 -42.6°
Drops below altitude 10° 23:52:02 10° 62° (ENE) 3,764 11.7 -41.5°
Sets 23:55:16 0° 58° (ENE) 4,771 12.4 -40.9°
